www.pogodaiklimat.ru

Погода и климат >> Архив погоды >> Бельгия >> Шьевр


ПОГОДА в Шьевре

  • Прогноз погоды в Шьевре
  • Монитор погоды в Шьевре

АРХИВ ПОГОДЫ в Шьевре

Время (UTC), дата Ветер
(напр.,м/с)
 
Видим.   Явления Облачность Т
(С)
Тd
(С)
f
(%)
Тe
(С)
Тes
(С)
Комфортность P
(гПа)
Po
(гПа)
Тmin
(С)
Tmax
(С)
R
(мм)
R24
(мм)
S
(см)
05 10.07 14 км н/о +13.8 +9.8 77 1021.3 1014.2
06 10.07 нст 1
{1}
20 км н/о +14.3 +8.7 69 +15 +15 1021.3 1014.2 +9.0
07 10.07
{2}
18 км н/о +16.3 +9.2 63 1021.2 1014.2
08 10.07
{2}
20 км н/о +18.1 +8.9 55 1021.2 1014.2
09 10.07 нст 1
{3}
20 км н/о +19.4 +8.1 48 +21 +21 комфорт 1021.2 1014.2
10 10.07
{4}
19 км н/о +20.7 +8.5 45 1021.0 1014.1
11 10.07
{3}
17 км н/о +21.8 +10.2 48 1020.7 1013.7
12 10.07 З 2
{4}
20 км н/о +21.7 +11.3 52 +24 +24 комфорт 1020.2 1013.2
13 10.07
{5}
19 км н/о +23.0 +12.8 53 1019.7 1012.8
14 10.07
{4}
19 км н/о +23.2 +11.6 48 1019.2 1012.3
15 10.07 С 2
{5}
17 км н/о +22.4 +13.6 57 +25 +25 комфорт 1018.7 1011.8
16 10.07
{3}
20 км {дождь} н/о +23.2 +12.9 52 1018.5 1011.6
17 10.07
{2}
19 км {дождь} н/о +23.0 +15.8 64 1018.2 1011.3
18 10.07 нст 1
{5}
18 км {дождь} н/о +21.9 +15.3 66 +25 +25 комфорт 1017.8 1011.0 +24.8 0.2
19 10.07
{1}
20 км н/о +21.0 +16.5 75 1017.6 1010.7
20 10.07
{1}
16 км н/о +19.1 +16.4 84 1017.3 1010.3
21 10.07 нст 1
{2}
15 км {дождь} н/о +17.8 +15.8 88 +19 +19 1016.8 1010.0
22 10.07
{1}
16 км н/о +16.5 +14.4 87 1016.7 1009.7
23 10.07
{1}
13 км н/о +15.6 +14.0 90 1016.3 1009.3
00 11.07 нст 1
{2}
5000 м {дождь} н/о +16.0 +14.5 91 +17 +17 1015.8 1008.8
01 11.07
{1}
13 км н/о +16.2 +14.4 89 1015.6 1008.6
02 11.07
{1}
10 км н/о +15.8 +14.3 91 1015.1 1008.1
03 11.07 нст 1
{2}
9000 м н/о +15.6 +14.3 92 +16 +16 1014.7 1007.7
04 11.07
{3}
11 км н/о +16.1 +14.2 88 1014.6 1007.6
05 11.07
{2}
10 км н/о +16.1 +14.7 91 1014.5 1007.3
06 11.07 нст 1
{3}
9000 м н/о +16.8 +15.3 91 +18 +18 1014.0 1007.1 +15.4
07 11.07
{3}
12 км {дождь} н/о +17.6 +15.6 88 1014.2 1007.2
08 11.07 ЮЗ 3
{3}
12 км н/о +19.2 +15.0 77 +21 +21 комфорт 1014.2 1007.3
09 11.07 ЮЗ 2
{4}
20 км {дождь} н/о +20.7 +13.3 63 +24 +24 комфорт 1013.8 1007.0
10 11.07 ЮЗ 3
{4}
20 км н/о +22.2 +12.8 55 +25 +25 комфорт 1013.8 1007.0
11 11.07 З 4
{6}
20 км н/о +22.7 +11.6 49 +25 +25 комфорт 1013.5 1006.7
12 11.07 З 4
{6}
20 км {дождь} н/о +22.2 +11.8 52 +25 +25 комфорт 1013.6 1006.7
13 11.07 З 3
{7}
18 км н/о +23.3 +11.9 49 +26 +26 жарко 1013.6 1006.7
14 11.07 З 4
{6}
10 км н/о +24.3 +12.3 47 +26 +26 жарко 1013.3 1006.6
15 11.07 З 4
{8}
19 км н/о +25.4 +11.7 42 +27 +27 жарко 1013.1 1006.3
16 11.07 З 5
{8}
20 км н/о +24.7 +11.0 42 +26 +26 жарко 1012.7 1006.0
17 11.07 З 4
{8}
20 км н/о +24.5 +11.7 45 +26 +26 жарко 1012.6 1005.8
18 11.07 СЗ 2
{8}
19 км н/о +23.5 +12.5 50 +25 +25 комфорт 1012.6 1005.7 +25.7
19 11.07
{3}
20 км н/о +22.3 +12.2 53 1012.7 1005.7
20 11.07
{2}
17 км н/о +20.6 +10.5 52 1012.7 1005.8
21 11.07 Ю 2
{3}
20 км н/о +16.3 +10.9 70 +16 +16 1013.2 1006.2
22 11.07
{3}
20 км н/о +14.6 +11.2 80 1013.2 1006.1
23 11.07 ЮЗ 2
{3}
20 км н/о +15.1 +10.6 74 +15 +15 1013.5 1006.5
00 12.07 ЮЗ 3
{3}
20 км н/о +15.6 +10.4 71 +15 +15 1013.1 1006.0
01 12.07 З 2
{3}
20 км н/о +14.5 +10.2 75 +14 +14 1013.0 1005.8
02 12.07 З 2
{3}
19 км н/о +13.5 +10.0 79 +13 +13 1013.0 1005.8
03 12.07 ЮЗ 2
{3}
15 км н/о +12.9 +10.6 86 +12 +12 1012.5 1005.3
04 12.07
{3}
9000 м н/о +13.3 +11.3 88 1012.5 1005.3
05 12.07 ЮЗ 2
{3}
6000 м н/о +13.3 +12.2 93 +13 +13 1012.7 1005.7
06 12.07 ЮЗ 3
{4}
7000 м н/о +15.4 +13.6 89 +15 +15 1012.7 1005.7 +12.5
07 12.07 ЮЗ 2
{4}
9000 м н/о +17.4 +14.4 83 +18 +18 1013.0 1006.1
08 12.07 З 3
{5}
10 км н/о +18.6 +15.3 81 +20 +20 1013.2 1006.3
09 12.07 З 3
{5}
17 км н/о +21.3 +16.4 74 +25 +25 комфорт 1013.1 1006.2
10 12.07 З 6
{9}
19 км {дождь} н/о +20.6 +15.6 73 +23 +23 комфорт 1012.8 1006.1
11 12.07 З 5
{8}
17 км н/о +23.3 +14.7 58 +27 +27 душно 1012.7 1005.8
12 12.07 СЗ 5
{10}
16 км {дождь, морось} н/о +20.7 +14.4 67 +23 +23 комфорт 1013.1 1006.2
13 12.07 СЗ 7
{11}
17 км н/о +23.1 +14.7 59 +27 +27 душно 1013.2 1006.3
14 12.07 СЗ 7
{11}
19 км н/о +20.7 +15.1 70 +23 +23 комфорт 1013.8 1007.0
15 12.07 СЗ 6
{11}
20 км н/о +22.3 +14.0 59 +25 +25 комфорт 1014.2 1007.3
16 12.07 СЗ 7
{10}
20 км н/о +22.1 +12.0 53 +24 +24 комфорт 1014.6 1007.7
17 12.07 С 5
{9}
20 км н/о +21.5 +12.4 56 +24 +24 комфорт 1014.6 1007.7
18 12.07 С 5
{11}
20 км н/о +20.2 +11.6 58 +22 +22 комфорт 1015.2 1008.2 +24.4
19 12.07 С 3
{7}
20 км н/о +18.8 +12.9 69 +20 +20 1015.7 1008.7
20 12.07 С 2
{5}
20 км н/о +16.3 +12.6 79 +16 +16 1016.7 1009.6
21 12.07 С 2
{7}
20 км н/о +16.2 +13.0 81 +16 +16 1017.2 1010.2
22 12.07 З 2
{3}
20 км н/о +15.4 +12.6 83 +15 +15 1017.5 1010.5
23 12.07 СЗ 2
{2}
18 км н/о +14.1 +12.1 88 +14 +14 1017.7 1010.7
00 13.07 СЗ 2
{7}
12 км н/о +13.3 +11.9 91 +13 +13 1018.0 1010.8
01 13.07
{3}
9000 м н/о +13.7 +12.3 91 1018.1 1011.0
02 13.07
{2}
8000 м н/о +12.9 +11.9 94 1018.0 1010.8
03 13.07 нст 1
{3}
7000 м н/о +14.1 +13.2 94 +14 +14 1018.5 1011.3
04 13.07 З 2
{3}
9000 м н/о +14.6 +13.7 94 +14 +14 1018.8 1011.7
05 13.07
{2}
11 км н/о +15.3 +14.1 93 1018.8 1011.7
06 13.07 З 2
{4}
2400 м слаб. дождь {морось} н/о +15.5 +15.1 97 +15 +15 1019.5 1012.3 +12.3 0.3
07 13.07 СЗ 4
{6}
15 км {дождь} н/о +16.4 +15.4 94 +16 +16 1019.8 1012.8
08 13.07 СЗ 3
{6}
20 км н/о +17.5 +15.0 85 +18 +18 1020.2 1013.1
09 13.07 С 3
{6}
20 км {дождь} н/о +18.2 +14.7 80 +19 +19 1020.2 1013.2
10 13.07 СЗ 4
{6}
19 км н/о +18.4 +15.2 82 +19 +19 1020.6 1013.6
11 13.07 СЗ 3
{6}
20 км н/о +19.2 +14.9 76 +21 +21 комфорт 1020.5 1013.5
12 13.07 З 6
{10}
20 км {дождь} н/о +19.8 +14.1 70 +21 +21 комфорт 1020.3 1013.5
13 13.07 СЗ 5
{8}
20 км {дождь} н/о +20.0 +14.3 70 +22 +22 комфорт 1020.5 1013.6
14 13.07 СЗ 6
{10}
20 км н/о +20.3 +14.3 68 +22 +22 комфорт 1020.8 1013.8
15 13.07 СЗ 5
{10}
20 км {дождь} н/о +18.5 +13.6 73 +19 +19 1021.0 1014.0
16 13.07 СЗ 4
{7}
20 км н/о +18.7 +13.8 73 +19 +19 1020.7 1013.7
17 13.07 С 4
{6}
20 км н/о +18.5 +13.3 72 +19 +19 1020.5 1013.5
18 13.07 СЗ 6
{10}
20 км {дождь} н/о +18.6 +13.1 70 +19 +19 1020.7 1013.7 +21.5 0.0
19 13.07 С 5
{9}
20 км н/о +16.7 +12.1 74 +16 +16 1021.1 1014.1
20 13.07 С 3
{7}
18 км н/о +14.7 +12.3 86 +14 +14 1021.5 1014.3
21 13.07 С 4
{9}
20 км н/о +14.6 +12.1 85 +13 +13 1021.7 1014.7
22 13.07 С 3
{5}
18 км н/о +12.6 +11.2 91 +11 +11 1021.8 1014.7
23 13.07 С 2
{4}
19 км н/о +12.3 +10.7 90 +11 +11 1021.7 1014.6
00 14.07 С 4
{9}
19 км н/о +14.6 +11.9 84 +13 +13 1021.5 1014.3
01 14.07 С 2
{8}
19 км н/о +14.2 +11.0 81 +14 +14 1021.7 1014.6
02 14.07
{5}
18 км н/о +14.1 +11.4 84 1021.3 1014.2
03 14.07 С 2
{8}
17 км н/о +14.1 +11.2 83 +14 +14 1021.1 1014.0
04 14.07
{3}
15 км н/о +14.0 +11.7 86 1020.7 1013.6
05 14.07 С 2
{4}
11 км н/о +14.1 +12.3 89 +14 +14 1020.8 1013.7
06 14.07 СВ 2
{8}
7000 м {дождь, морось} н/о +13.9 +13.3 96 +13 +13 1021.2 1014.1 +12.1 0.1
07 14.07 СВ 2
{5}
10 км {дождь, морось} н/о +14.2 +13.0 92 +14 +14 1021.5 1014.3
08 14.07 СВ 3
{4}
5000 м слаб. морось {дождь} н/о +14.1 +13.1 94 +13 +13 1021.8 1014.7
09 14.07 С 3
{5}
18 км {дождь, морось} н/о +15.6 +13.2 86 +15 +15 1021.8 1014.7
10 14.07 СВ 3
{6}
20 км {дождь} н/о +17.7 +13.1 74 +18 +18 1021.7 1014.6
11 14.07 С 4
{8}
16 км {дождь, морось} н/о +15.1 +13.8 92 +14 +14 1021.8 1014.7
12 14.07 С 4
{8}
20 км {дождь, морось} н/о +17.8 +12.1 69 +18 +18 1021.6 1014.6 0.1
13 14.07 С 3
{7}
20 км н/о +17.8 +11.7 67 +18 +18 1021.2 1014.2
14 14.07 С 4
{7}
20 км н/о +17.7 +12.1 70 +17 +17 1021.2 1014.1
15 14.07 С 5
{7}
20 км н/о +17.3 +12.3 72 +17 +17 1021.1 1014.1
16 14.07 С 5
{8}
20 км н/о +18.6 +12.0 65 +19 +19 1020.7 1013.7
17 14.07 С 4
{7}
20 км н/о +17.7 +11.5 67 +17 +17 1021.0 1013.8
18 14.07 С 5
{8}
20 км н/о +17.2 +11.6 70 +17 +17 1021.1 1014.1 +19.8 0.1
19 14.07 С 4
{7}
20 км н/о +16.6 +11.8 73 +16 +16 1021.2 1014.2
20 14.07 С 5
{8}
20 км н/о +15.2 +11.0 76 +14 +14 1021.3 1014.2
21 14.07 С 4
{8}
20 км н/о +13.3 +10.1 81 +12 +12 1021.7 1014.6
22 14.07 С 2
{4}
20 км н/о +11.8 +9.8 88 +11 +11 1021.8 1014.7
23 14.07 С 2
{3}
19 км н/о +11.1 +9.0 87 +10 +10 1022.0 1014.7
00 15.07 С 2
{8}
18 км н/о +9.8 +8.2 90 +8 +8 1021.8 1014.6
01 15.07
{3}
15 км н/о +9.3 +7.8 90 1021.7 1014.3
02 15.07
{2}
14 км н/о +8.8 +7.3 90 1021.2 1014.0
03 15.07 нст 1
{3}
7000 м н/о +8.1 +7.3 95 +7 +7 1021.2 1014.0
04 15.07
{1}
5000 м дымка н/о +8.9 +8.1 95 1021.3 1014.1
05 15.07 штиль 0
{1}
8000 м н/о +10.6 +9.8 95 +10 +10 1021.3 1014.2
06 15.07 нст 1
{3}
10 км н/о +12.3 +10.9 91 +12 +12 1021.3 1014.2 +7.9
07 15.07
{1}
12 км н/о +14.1 +12.0 87 1021.5 1014.3
08 15.07
{2}
17 км н/о +15.6 +11.4 76 1021.7 1014.7
09 15.07 нст 1
{3}
18 км н/о +15.8 +10.6 71 +17 +17 1021.7 1014.6
10 15.07 С 2
{3}
18 км н/о +16.3 +11.6 74 +16 +16 1021.5 1014.3
11 15.07 С 3
{5}
20 км н/о +17.1 +12.1 72 +17 +17 1021.5 1014.5
12 15.07 С 4
{6}
17 км н/о +16.2 +12.0 76 +15 +15 1021.6 1014.5
13 15.07 СВ 3
{5}
18 км н/о +17.4 +11.8 70 +17 +17 1021.3 1014.3
14 15.07 СВ 2
{6}
18 км н/о +18.1 +12.2 68 +19 +19 1021.3 1014.3
15 15.07 С 2
{6}
19 км н/о +17.8 +11.6 67 +18 +18 1021.5 1014.3
16 15.07 С 2
{5}
19 км н/о +18.1 +10.9 63 +19 +19 1021.1 1014.1
17 15.07 С 4
{6}
20 км н/о +17.8 +10.5 62 +18 +18 1020.7 1013.7
18 15.07 С 4
{6}
20 км н/о +16.8 +11.1 69 +16 +16 1020.7 1013.7 +19.0
19 15.07 С 3
{6}
19 км н/о +16.1 +11.7 75 +16 +16 1020.8 1013.8
20 15.07 С 3
{4}
20 км н/о +15.5 +11.4 77 +15 +15 1021.2 1014.1
21 15.07 С 2
{6}
20 км н/о +14.3 +11.4 83 +14 +14 1021.3 1014.2
22 15.07 С 2
{3}
18 км н/о +14.1 +11.8 86 +14 +14 1021.3 1014.2
23 15.07
{3}
20 км н/о +14.1 +11.7 85 1021.2 1014.2
00 16.07 нст 1
{6}
20 км н/о +13.8 +11.8 88 +14 +14 1021.3 1014.2
01 16.07
{2}
20 км н/о +13.8 +11.5 86 1021.1 1014.0
02 16.07
{1}
20 км н/о +13.3 +11.2 87 1020.6 1013.5
03 16.07 нст 1
{2}
18 км н/о +13.6 +10.8 83 +14 +14 1020.6 1013.3
04 16.07
{2}
13 км н/о +13.5 +11.3 87 1020.6 1013.3
05 16.07
{2}
9000 м н/о +13.6 +11.3 86 1020.8 1013.7
06 16.07 нст 1
{2}
11 км н/о +14.3 +11.3 82 +15 +15 1020.8 1013.7 +13.1
07 16.07
{3}
18 км н/о +14.6 +10.0 74 1021.2 1014.1
08 16.07
{2}
20 км н/о +14.8 +10.3 74 1021.1 1014.0
09 16.07 нст 1
{3}
19 км н/о +15.1 +9.9 71 +16 +16 1021.0 1014.0
10 16.07 С 2
{4}
15 км н/о +16.6 +9.8 64 +17 +17 1020.7 1013.7
11 16.07
{4}
15 км н/о +17.5 +10.2 62 1020.5 1013.5
12 16.07 нст 1
{5}
19 км н/о +18.9 +10.4 58 +21 +21 комфорт 1020.0 1013.0
13 16.07 С 2
{4}
19 км н/о +20.6 +11.7 57 +23 +23 комфорт 1019.6 1012.7
14 16.07
{5}
19 км н/о +20.4 +11.0 55 1019.3 1012.3
15 16.07 нст 1
{5}
20 км н/о +20.7 +10.3 51 +24 +24 комфорт 1019.0 1012.1
16 16.07 СЗ 2
{5}
13 км н/о +21.1 +11.3 54 +23 +23 комфорт 1018.6 1011.7
17 16.07 СЗ 2
{4}
16 км н/о +20.7 +10.9 53 +23 +23 комфорт 1018.3 1011.5
18 16.07 нст 1
{5}
20 км н/о +20.9 +11.2 54 +24 +24 комфорт 1018.2 1011.2 +21.6
19 16.07
{3}
20 км н/о +18.7 +11.8 64 1018.1 1011.1
20 16.07
{2}
20 км н/о +16.1 +11.5 74 1018.2 1011.2
21 16.07 нст 1
{3}
17 км н/о +13.1 +10.4 84 +13 +13 1018.2 1011.1
22 16.07 штиль 0 14 км н/о +12.1 +10.0 87 +12 +12 1018.2 1011.1
23 16.07 13 км н/о +10.8 +9.2 90 1018.2 1011.1
00 17.07 нст 1
{3}
9000 м н/о +9.6 +8.5 93 +9 +9 1018.2 1011.1
01 17.07
{1}
10 км н/о +9.3 +7.6 89 1018.1 1010.8
02 17.07
{1}
4100 м дымка н/о +8.5 +7.5 93 1017.6 1010.3
03 17.07 нст 1
{1}
100 м туман н/о +9.1 +8.0 93 +8 +8 1017.3 1010.2

 

Местоположение метеостанции Шьевр (Бельгия): широта 50.57 долгота 3.83 высота над уровнем моря 63 м.

В архиве по умолчанию представлена погода в Шьевре за последнюю неделю. Архивные данные за месяц целиком и за предыдущие месяцы, начиная с января 2011 года, Вы можете получить, выбрав интересующий диапазон дат из раскрывающегося списка и нажав кнопку "Ввод!".


*Определитесь, кто Вы:
робот инопланетянин человек

Внимание! Время в таблицах - всемирное. Для получения местного времени необходимо прибавить поправку, которая равна 1 ч.

Смотрите также архив погоды в соседних городах и на ближайших метеорологических станциях:

Погода в Семмерзэйке (Бельгия) (42 км)
Погода в Уккеле (Бельгия) (45 км)
Погода в Шарлеруа (Бельгия) (45 км)
Погода в Мелле (Бельгия) (46 км)
Погода в Лилле (Франция) (52 км)
Погода в Эрнаже (Бельгия) (61 км)
Погода в Брюсселе (Бельгия) (61 км)
Погода в Бейтеме (Бельгия) (62 км)
Погода в Генте (Бельгия) (68 км)
Погода в Бовешене (Бельгия) (69 км)

Пояснения к столбцам:

Ветер - указаны скорость ветра в м/с - средняя за 10 мин, порывы в срок и между сроками (в фигурных скобках) и направление, откуда дует ветер: С - северный, СВ - северо-восточный, В - восточный, ЮВ - юго-восточный, Ю - южный, ЮЗ - юго-западный, З - западный, СЗ - северо-западный.
Видимость - горизонтальная дальность видимости в метрах или километрах. При видимости от 1 до 10 км при отсутствии осадков обычно наблюдается дымка, при ухудшении видимости до 1 км и менее - туман. В сухую погоду видимость может ухудшаться дымом, пылью или мглою.
Явления - указаны атмосферные явления, наблюдавшиеся в срок или в последний час перед сроком; фигурными скобками обозначены явления, наблюдавшиеся между сроками (за 1-3 часа до срока); квадратными скобками обозначены град или гололедные отложения с указанием их диаметра в мм.
Облачность - указаны через наклонную черту общая и нижняя облачность в баллах и высота нижней границы облаков в метрах; квадратными скобками обозначены формы облаков: Ci - перистые, Cs - перисто-слоистые, Cc - перисто-кучевые, Ac - высококучевые, As - высокослоистые, Sc - слоисто-кучевые, Ns - слоисто-дождевые, Cu - кучевые, Cb - кучево-дождевые. Подробнее классификацию облаков см. в Атласе облаков (PDF).
T - Температура воздуха - температура, измеренная на высоте 2 м над землей.
Td - Температура точки росы - температура, при понижении до которой содержащийся в воздухе водяной пар достигнет насыщения.
f - Относительная влажность воздуха - влажноcть воздуха, измеренная на высоте 2 м над землей.
Te - Эффективная температура - температура, которую ощущает одетый по сезону человек в тени. Характеристика душности погоды. При расчете учитывается влияние влажности воздуха и скорости ветра на теплоощущения человека.
Tes - Эффективная температура на солнце - температура, которую ощущает человек, с поправкой на солнечный нагрев. Характеристика знойности погоды. Зависит от высоты солнца над горизонтом, облачности и скорости ветра. Ночью, в пасмурную погоду, а также при ветре 12 м/с и более поправка равна нулю.
P - Атмосферное давление - приведенное к уровню моря атмосферное давление.
Po - Атмосферное давление - измеренное на уровне метеостанции атмосферное давление.
Tmin - Минимальная температура - минимум температуры воздуха на высоте 2 м над землей.
Tmax - Максимальная температура - максимум температуры воздуха на высоте 2 м над землей.
R - Количество осадков - Количество выпавших осадков за период времени, мм. При наведении курсора мыши на число - период времени, за который выпало указанное количество осадков.
R24 - Количество осадков - Количество выпавших осадков за 24 часа, мм.
S - Снежный покров - Высота снежного покрова, см. При наведении курсора мыши на число - состояние снежного покрова и степень покрытия местности в баллах.